This demonstration page uses our WeatherBlox Daily Observations layout. Learn more.

Left ArrowRight Arrow

38.88101, -77.10428

Hourly Observations for August 18, 2020

Temp ( °F °C ) Dew Point ( °F °C ) Humidity (%) Winds ( mph kmh ) Pressure ( in mb ) Visibility ( mi km ) Precip ( " mm )
12:52 am 00:52 Mostly Clear 70 21.1 67 19.4 90 90 SSW 6 9 29.91 1013 10 16.0934 0 0
1:52 am 01:52 Clear 70 21.1 66 18.9 87 87 S 7 11 29.89 1012 10 16.0934 0 0
2:52 am 02:52 Clear 69 20.6 66 18.9 90 90 SSW 6 9 29.87 1012 10 16.0934 0 0
3:52 am 03:52 Clear 70 21.1 67 19.4 90 90 S 8 13 29.87 1011 10 16.0934 0 0
4:52 am 04:52 Mostly Clear 69 20.6 66 18.9 90 90 SW 3 6 29.86 1011 10 16.0934 0 0
5:52 am 05:52 Mostly Clear 69 20.6 65 18.3 87 87 WSW 3 6 29.87 1012 10 16.0934 0 0
6:52 am 06:52 Mostly Sunny 69 20.6 64 17.8 84 84 W 5 7 29.88 1012 10 16.0934 0 0
7:52 am 07:52 Mostly Sunny 73 22.8 63 17.2 71 71 Calm 29.9 1012 10 16.0934 0 0
8:52 am 08:52 Mostly Sunny 76 24.4 64 17.8 67 67 Calm 29.91 1013 10 16.0934 0 0
9:52 am 09:52 Mostly Sunny 78 25.6 63 17.2 60 60 NW 13 20 29.92 1013 10 16.0934 0 0
10:52 am 10:52 Mostly Sunny 80 26.7 64 17.8 58 58 NNW 9 15 29.93 1013 10 16.0934 0 0
11:52 am 11:52 Mostly Sunny 82 27.8 64 17.8 55 55 NNW 9 15 29.92 1013 10 16.0934 0 0
12:52 pm 12:52 Mostly Sunny 83 28.3 62 16.7 49 49 N 10 17 29.92 1013 10 16.0934 0 0
1:52 pm 13:52 Partly Cloudy 84 28.9 63 17.2 49 49 NNW 9 15 29.91 1013 10 16.0934 0 0
2:52 pm 14:52 Partly Cloudy 85 29.4 64 17.8 50 50 N 9 15 29.89 1012 10 16.0934 0 0
3:52 pm 15:52 Partly Cloudy 88 31.1 63 17.2 43 43 N 7 11 29.87 1012 10 16.0934 0 0
4:52 pm 16:52 Mostly Cloudy 83 28.3 62 16.7 49 49 N 6 9 29.86 1011 10 16.0934 0 0
5:52 pm 17:52 Mostly Cloudy 83 28.3 62 16.7 49 49 NNW 7 11 29.86 1011 10 16.0934 0 0
6:52 pm 18:52 Mostly Cloudy 84 28.9 61 16.1 46 46 N 3 6 29.86 1011 10 16.0934 0 0
7:52 pm 19:52 Partly Cloudy 80 26.7 63 17.2 56 56 S 3 6 29.87 1012 10 16.0934 0 0
8:52 pm 20:52 Mostly Clear 80 26.7 64 17.8 58 58 SSW 3 6 29.89 1012 10 16.0934 0 0
9:52 pm 21:52 Mostly Clear 76 24.4 70 21.1 82 82 S 6 9 29.91 1013 10 16.0934 0 0
10:52 pm 22:52 Mostly Clear 76 24.4 67 19.4 74 74 SSW 3 6 29.91 1013 10 16.0934 0 0
11:52 pm 23:52 Mostly Clear 75 23.9 67 19.4 76 76 SW 5 7 29.91 1013 10 16.0934 0 0

Powered by AerisWeather